Time,TemperatureF,DewpointF,PressureIn,WindDirection,WindDirectionDegrees,WindSpeedMPH,WindSpeedGustMPH,Humidity,HourlyPrecipIn,Conditions,Clouds,dailyrainin,SoftwareType,DateUTC
2013-02-14 00:00:00,34.5,23.7,30.09,SE,135,2.0,5.0,64,0.00,,,0.23,meteohub,2013-02-14 05:00:00,
2013-02-14 00:01:00,34.5,23.7,30.09,SE,135,2.0,3.0,64,0.00,,,0.23,meteohub,2013-02-14 05:01:00,
2013-02-14 00:06:00,34.5,23.7,30.09,SE,135,2.0,2.0,64,0.00,,,0.00,meteohub,2013-02-14 05:06:00,
2013-02-14 00:11:00,34.7,23.9,30.10,NW,315,0.0,3.0,64,0.00,,,0.00,meteohub,2013-02-14 05:11:00,
2013-02-14 00:16:00,34.5,23.7,30.10,North,0,2.0,3.0,64,0.00,,,0.00,meteohub,2013-02-14 05:16:00,
2013-02-14 00:21:00,34.7,24.3,30.09,NW,315,0.0,3.0,65,0.00,,,0.00,meteohub,2013-02-14 05:21:00,
2013-02-14 00:26:00,34.5,24.1,30.10,NW,315,0.0,2.0,65,0.00,,,0.00,meteohub,2013-02-14 05:26:00,
2013-02-14 00:31:00,34.3,23.9,30.10,East,90,2.0,2.0,65,0.00,,,0.00,meteohub,2013-02-14 05:31:00,
2013-02-14 00:36:00,34.5,24.1,30.10,NW,315,2.0,2.0,65,0.00,,,0.00,meteohub,2013-02-14 05:36:00,
2013-02-14 00:41:00,34.5,24.1,30.10,NW,315,2.0,2.0,65,0.00,,,0.00,meteohub,2013-02-14 05:41:00,
2013-02-14 00:46:00,34.5,24.4,30.10,NW,315,2.0,2.0,66,0.00,,,0.00,meteohub,2013-02-14 05:46:00,
2013-02-14 00:51:00,34.3,24.3,30.10,NW,315,2.0,2.0,66,0.00,,,0.00,meteohub,2013-02-14 05:51:00,
2013-02-14 00:57:00,34.2,24.3,30.10,NW,315,0.0,2.0,66,0.00,,,0.00,meteohub,2013-02-14 05:57:00,
2013-02-14 01:02:00,34.2,24.3,30.10,NW,315,1.0,2.0,66,0.00,,,0.00,meteohub,2013-02-14 06:02:00,
2013-02-14 01:07:00,34.2,24.3,30.10,NW,315,1.0,2.0,66,0.00,,,0.00,meteohub,2013-02-14 06:07:00,
2013-02-14 01:12:00,33.8,23.9,30.10,North,0,0.0,2.0,66,0.00,,,0.00,meteohub,2013-02-14 06:12:00,
2013-02-14 01:17:00,33.6,23.7,30.10,NW,315,0.0,2.0,66,0.00,,,0.00,meteohub,2013-02-14 06:17:00,
2013-02-14 01:22:00,33.4,23.5,30.10,NW,315,2.0,2.0,66,0.00,,,0.00,meteohub,2013-02-14 06:22:00,
2013-02-14 01:27:00,33.3,23.4,30.09,North,0,0.0,2.0,66,0.00,,,0.00,meteohub,2013-02-14 06:27:00,
2013-02-14 01:32:00,33.1,23.2,30.10,North,0,0.0,2.0,66,0.00,,,0.00,meteohub,2013-02-14 06:32:00,
2013-02-14 01:37:00,32.7,22.8,30.10,North,0,0.0,2.0,66,0.00,,,0.00,meteohub,2013-02-14 06:37:00,
2013-02-14 01:42:00,32.5,22.6,30.10,North,0,0.0,1.0,66,0.00,,,0.00,meteohub,2013-02-14 06:42:00,
2013-02-14 01:47:00,32.2,22.3,30.10,North,0,0.0,0.0,66,0.00,,,0.00,meteohub,2013-02-14 06:47:00,
2013-02-14 01:52:00,32.0,22.1,30.10,North,0,0.0,0.0,66,0.00,,,0.00,meteohub,2013-02-14 06:52:00,
2013-02-14 01:57:00,31.6,21.7,30.10,North,0,0.0,0.0,66,0.00,,,0.00,meteohub,2013-02-14 06:57:00,
2013-02-14 02:02:00,31.6,21.7,30.11,North,0,0.0,0.0,66,0.00,,,0.00,meteohub,2013-02-14 07:02:00,
2013-02-14 02:07:00,31.6,21.7,30.11,North,0,0.0,0.0,66,0.00,,,0.00,meteohub,2013-02-14 07:07:00,
2013-02-14 02:12:00,31.6,21.7,30.10,NW,315,0.0,0.0,66,0.00,,,0.00,meteohub,2013-02-14 07:12:00,
2013-02-14 02:17:00,31.5,21.6,30.11,NW,315,0.0,0.0,66,0.00,,,0.00,meteohub,2013-02-14 07:17:00,
2013-02-14 02:22:00,31.3,21.4,30.11,NW,315,0.0,0.0,66,0.00,,,0.00,meteohub,2013-02-14 07:22:00,
2013-02-14 02:27:00,31.1,21.6,30.10,North,0,0.0,0.0,67,0.00,,,0.00,meteohub,2013-02-14 07:27:00,
2013-02-14 02:32:00,32.2,22.3,30.10,North,0,0.0,0.0,66,0.00,,,0.00,meteohub,2013-02-14 07:32:00,
2013-02-14 02:37:00,30.7,20.8,30.11,North,0,0.0,0.0,66,0.00,,,0.00,meteohub,2013-02-14 07:37:00,
2013-02-14 02:42:00,30.6,20.7,30.11,North,0,0.0,0.0,66,0.00,,,0.00,meteohub,2013-02-14 07:42:00,
2013-02-14 02:47:00,30.4,20.5,30.11,North,0,0.0,0.0,66,0.00,,,0.00,meteohub,2013-02-14 07:47:00,
2013-02-14 02:52:00,30.4,20.8,30.11,West,270,0.0,2.0,67,0.00,,,0.00,meteohub,2013-02-14 07:52:00,
2013-02-14 02:57:00,30.4,20.8,30.11,NW,315,0.0,2.0,67,0.00,,,0.00,meteohub,2013-02-14 07:57:00,
2013-02-14 03:02:00,30.4,20.8,30.11,NW,315,0.0,2.0,67,0.00,,,0.00,meteohub,2013-02-14 08:02:00,
2013-02-14 03:07:00,30.4,20.8,30.11,NW,315,0.0,0.0,67,0.00,,,0.00,meteohub,2013-02-14 08:07:00,
2013-02-14 03:12:00,30.0,20.7,30.11,NW,315,0.0,0.0,67,0.00,,,0.00,meteohub,2013-02-14 08:12:00,
2013-02-14 03:17:00,29.8,20.5,30.11,NW,315,0.0,0.0,67,0.00,,,0.00,meteohub,2013-02-14 08:17:00,
2013-02-14 03:22:00,29.7,20.3,30.11,East,90,0.0,1.0,67,0.00,,,0.00,meteohub,2013-02-14 08:22:00,
2013-02-14 03:27:00,29.7,20.3,30.11,East,90,0.0,1.0,67,0.00,,,0.00,meteohub,2013-02-14 08:27:00,
2013-02-14 03:32:00,29.5,20.1,30.12,East,90,2.0,2.0,67,0.00,,,0.00,meteohub,2013-02-14 08:32:00,
2013-02-14 03:37:00,29.5,20.1,30.12,East,90,0.0,2.0,67,0.00,,,0.00,meteohub,2013-02-14 08:37:00,
2013-02-14 03:42:00,29.3,19.9,30.12,East,90,0.0,2.0,67,0.00,,,0.00,meteohub,2013-02-14 08:42:00,
2013-02-14 03:47:00,29.1,19.8,30.12,East,90,0.0,2.0,67,0.00,,,0.00,meteohub,2013-02-14 08:47:00,
2013-02-14 03:52:00,28.9,19.6,30.12,East,90,0.0,0.0,67,0.00,,,0.00,meteohub,2013-02-14 08:52:00,
2013-02-14 03:57:00,28.8,19.4,30.12,East,90,0.0,0.0,67,0.00,,,0.00,meteohub,2013-02-14 08:57:00,
2013-02-14 04:02:00,28.8,19.4,30.12,East,90,0.0,0.0,67,0.00,,,0.00,meteohub,2013-02-14 09:02:00,
2013-02-14 04:07:00,28.8,19.4,30.12,East,90,0.0,0.0,67,0.00,,,0.00,meteohub,2013-02-14 09:07:00,
2013-02-14 04:12:00,28.4,19.0,30.12,East,90,0.0,0.0,67,0.00,,,0.00,meteohub,2013-02-14 09:12:00,
2013-02-14 04:17:00,28.4,19.0,30.12,East,90,0.0,0.0,67,0.00,,,0.00,meteohub,2013-02-14 09:17:00,
2013-02-14 04:23:00,28.6,19.2,30.12,East,90,0.0,0.0,67,0.00,,,0.00,meteohub,2013-02-14 09:23:00,
2013-02-14 04:28:00,28.8,19.4,30.12,East,90,0.0,0.0,67,0.00,,,0.00,meteohub,2013-02-14 09:28:00,
2013-02-14 04:33:00,28.9,19.9,30.12,East,90,0.0,0.0,68,0.00,,,0.00,meteohub,2013-02-14 09:33:00,
2013-02-14 04:38:00,28.8,19.4,30.12,East,90,0.0,0.0,67,0.00,,,0.00,meteohub,2013-02-14 09:38:00,
2013-02-14 04:43:00,28.8,19.4,30.12,East,90,0.0,0.0,67,0.00,,,0.00,meteohub,2013-02-14 09:43:00,
2013-02-14 04:48:00,28.6,19.6,30.12,East,90,0.0,0.0,68,0.00,,,0.00,meteohub,2013-02-14 09:48:00,
2013-02-14 04:53:00,28.6,19.2,30.12,East,90,0.0,0.0,67,0.00,,,0.00,meteohub,2013-02-14 09:53:00,
2013-02-14 04:58:00,28.6,19.2,30.12,East,90,0.0,0.0,67,0.00,,,0.00,meteohub,2013-02-14 09:58:00,
2013-02-14 05:03:00,28.4,19.0,30.12,East,90,0.0,0.0,67,0.00,,,0.00,meteohub,2013-02-14 10:03:00,
2013-02-14 05:08:00,28.4,19.0,30.12,East,90,0.0,0.0,67,0.00,,,0.00,meteohub,2013-02-14 10:08:00,
2013-02-14 05:13:00,28.6,19.6,30.12,East,90,0.0,0.0,68,0.00,,,0.00,meteohub,2013-02-14 10:13:00,
2013-02-14 05:18:00,28.6,19.6,30.12,East,90,0.0,0.0,68,0.00,,,0.00,meteohub,2013-02-14 10:18:00,
2013-02-14 05:24:00,28.6,19.6,30.12,East,90,0.0,0.0,68,0.00,,,0.00,meteohub,2013-02-14 10:24:00,
2013-02-14 05:29:00,28.4,19.4,30.12,East,90,0.0,0.0,68,0.00,,,0.00,meteohub,2013-02-14 10:29:00,
2013-02-14 05:34:00,28.6,19.6,30.12,East,90,0.0,0.0,68,0.00,,,0.00,meteohub,2013-02-14 10:34:00,
2013-02-14 05:39:00,28.6,19.6,30.12,East,90,0.0,0.0,68,0.00,,,0.00,meteohub,2013-02-14 10:39:00,
2013-02-14 05:44:00,28.6,19.6,30.13,East,90,0.0,0.0,68,0.00,,,0.00,meteohub,2013-02-14 10:44:00,
2013-02-14 05:49:00,28.2,19.2,30.13,East,90,0.0,0.0,68,0.00,,,0.00,meteohub,2013-02-14 10:49:00,
2013-02-14 05:54:00,28.0,19.0,30.13,East,90,0.0,0.0,68,0.00,,,0.00,meteohub,2013-02-14 10:54:00,
2013-02-14 05:59:00,28.0,19.0,30.13,East,90,0.0,0.0,68,0.00,,,0.00,meteohub,2013-02-14 10:59:00,
2013-02-14 06:04:00,28.0,19.0,30.14,East,90,0.0,0.0,68,0.00,,,0.00,meteohub,2013-02-14 11:04:00,
2013-02-14 06:09:00,28.0,19.0,30.14,East,90,0.0,0.0,68,0.00,,,0.00,meteohub,2013-02-14 11:09:00,
2013-02-14 06:14:00,27.9,18.9,30.14,East,90,0.0,0.0,68,0.00,,,0.00,meteohub,2013-02-14 11:14:00,
2013-02-14 06:19:00,27.9,18.9,30.14,East,90,0.0,0.0,68,0.00,,,0.00,meteohub,2013-02-14 11:19:00,
2013-02-14 06:24:00,27.7,18.7,30.14,East,90,0.0,0.0,68,0.00,,,0.00,meteohub,2013-02-14 11:24:00,
2013-02-14 06:29:00,27.7,18.7,30.14,East,90,0.0,0.0,68,0.00,,,0.00,meteohub,2013-02-14 11:29:00,
2013-02-14 06:34:00,27.7,18.7,30.15,East,90,0.0,0.0,68,0.00,,,0.00,meteohub,2013-02-14 11:34:00,
2013-02-14 06:40:00,27.7,18.7,30.15,East,90,0.0,0.0,68,0.00,,,0.00,meteohub,2013-02-14 11:40:00,
2013-02-14 06:45:00,27.5,18.5,30.16,East,90,0.0,0.0,68,0.00,,,0.00,meteohub,2013-02-14 11:45:00,
2013-02-14 06:50:00,27.3,18.3,30.16,East,90,0.0,0.0,68,0.00,,,0.00,meteohub,2013-02-14 11:50:00,
2013-02-14 06:55:00,27.3,18.3,30.17,East,90,0.0,0.0,68,0.00,,,0.00,meteohub,2013-02-14 11:55:00,
2013-02-14 07:00:00,27.5,18.5,30.17,East,90,0.0,0.0,68,0.00,,,0.00,meteohub,2013-02-14 12:00:00,
2013-02-14 07:05:00,27.5,18.5,30.17,East,90,0.0,0.0,68,0.00,,,0.00,meteohub,2013-02-14 12:05:00,
2013-02-14 07:10:00,27.5,18.5,30.17,East,90,0.0,0.0,68,0.00,,,0.00,meteohub,2013-02-14 12:10:00,
2013-02-14 07:15:00,27.5,18.5,30.18,East,90,0.0,0.0,68,0.00,,,0.00,meteohub,2013-02-14 12:15:00,
2013-02-14 07:20:00,27.5,18.5,30.18,East,90,0.0,0.0,68,0.00,,,0.00,meteohub,2013-02-14 12:20:00,
2013-02-14 07:25:00,28.4,19.4,30.18,East,90,0.0,0.0,68,0.00,,,0.00,meteohub,2013-02-14 12:25:00,
2013-02-14 07:30:00,27.3,18.3,30.18,East,90,0.0,0.0,68,0.00,,,0.00,meteohub,2013-02-14 12:30:00,
2013-02-14 07:35:00,27.3,18.3,30.19,East,90,0.0,0.0,68,0.00,,,0.00,meteohub,2013-02-14 12:35:00,
2013-02-14 07:41:00,27.3,18.3,30.21,SE,135,0.0,2.0,68,0.00,,,0.00,meteohub,2013-02-14 12:41:00,
2013-02-14 07:46:00,27.5,18.5,30.19,NW,315,0.0,2.0,68,0.00,,,0.00,meteohub,2013-02-14 12:46:00,
2013-02-14 07:51:00,27.9,19.2,30.20,West,270,0.0,2.0,69,0.00,,,0.00,meteohub,2013-02-14 12:51:00,
2013-02-14 07:56:00,28.0,19.4,30.19,West,270,0.0,2.0,69,0.00,,,0.00,meteohub,2013-02-14 12:56:00,
2013-02-14 08:01:00,28.4,19.8,30.19,West,270,0.0,2.0,69,0.00,,,0.00,meteohub,2013-02-14 13:01:00,
2013-02-14 08:06:00,28.6,19.9,30.18,West,270,0.0,0.0,69,0.00,,,0.00,meteohub,2013-02-14 13:06:00,
2013-02-14 08:11:00,28.8,20.1,30.20,West,270,1.0,0.0,69,0.00,,,0.00,meteohub,2013-02-14 13:11:00,
2013-02-14 08:16:00,28.9,20.3,30.21,West,270,0.0,2.0,69,0.00,,,0.00,meteohub,2013-02-14 13:16:00,
2013-02-14 08:21:00,28.9,20.3,30.21,West,270,0.0,2.0,69,0.00,,,0.00,meteohub,2013-02-14 13:21:00,
2013-02-14 08:26:00,29.5,20.8,30.21,West,270,0.0,1.0,69,0.00,,,0.00,meteohub,2013-02-14 13:26:00,
2013-02-14 08:31:00,30.6,22.1,30.20,West,270,0.0,2.0,70,0.00,,,0.00,meteohub,2013-02-14 13:31:00,
2013-02-14 08:36:00,32.5,24.4,30.19,West,270,0.0,2.0,71,0.00,,,0.00,meteohub,2013-02-14 13:36:00,
2013-02-14 08:41:00,33.8,25.5,30.19,West,270,1.0,2.0,71,0.00,,,0.00,meteohub,2013-02-14 13:41:00,
2013-02-14 08:46:00,35.2,27.1,30.19,West,270,2.0,2.0,72,0.00,,,0.00,meteohub,2013-02-14 13:46:00,
2013-02-14 08:51:00,35.2,26.4,30.19,West,270,2.0,2.0,70,0.00,,,0.00,meteohub,2013-02-14 13:51:00,
2013-02-14 08:57:00,36.1,27.3,30.19,West,270,0.0,2.0,70,0.00,,,0.00,meteohub,2013-02-14 13:57:00,
2013-02-14 09:02:00,36.9,27.7,30.20,West,270,0.0,2.0,69,0.00,,,0.00,meteohub,2013-02-14 14:02:00,
2013-02-14 09:07:00,36.9,27.7,30.20,West,270,0.0,2.0,69,0.00,,,0.00,meteohub,2013-02-14 14:07:00,
2013-02-14 09:12:00,43.2,33.4,30.18,SE,135,1.0,1.0,68,0.00,,,0.00,meteohub,2013-02-14 14:12:00,
2013-02-14 09:17:00,44.8,34.0,30.18,SE,135,2.0,2.0,65,0.00,,,0.00,meteohub,2013-02-14 14:17:00,
2013-02-14 09:22:00,44.6,25.9,30.18,East,90,3.0,3.0,47,0.00,,,0.00,meteohub,2013-02-14 14:22:00,
2013-02-14 09:27:00,44.6,22.6,30.17,South,180,4.0,4.0,41,0.00,,,0.00,meteohub,2013-02-14 14:27:00,
2013-02-14 09:32:00,45.0,22.5,30.16,East,90,4.0,4.0,40,0.00,,,0.00,meteohub,2013-02-14 14:32:00,
2013-02-14 09:37:00,45.3,20.3,30.16,SE,135,4.0,4.0,36,0.00,,,0.00,meteohub,2013-02-14 14:37:00,
2013-02-14 09:42:00,46.0,18.9,30.15,SE,135,4.0,4.0,33,0.00,,,0.00,meteohub,2013-02-14 14:42:00,
2013-02-14 09:47:00,46.2,14.4,30.16,West,270,4.0,5.0,27,0.00,,,0.00,meteohub,2013-02-14 14:47:00,
2013-02-14 09:52:00,47.7,17.2,30.15,South,180,3.0,8.0,29,0.00,,,0.00,meteohub,2013-02-14 14:52:00,
2013-02-14 09:57:00,48.4,14.5,30.14,East,90,4.0,8.0,25,0.00,,,0.00,meteohub,2013-02-14 14:57:00,
2013-02-14 10:02:00,48.0,11.5,30.15,NE,45,4.0,8.0,22,0.00,,,0.00,meteohub,2013-02-14 15:02:00,
2013-02-14 10:07:00,48.0,11.5,30.16,NE,45,4.0,8.0,22,0.00,,,0.00,meteohub,2013-02-14 15:07:00,
2013-02-14 10:12:00,48.2,10.6,30.15,NE,45,3.0,8.0,21,0.00,,,0.00,meteohub,2013-02-14 15:12:00,
2013-02-14 10:17:00,48.6,8.6,30.15,NW,315,2.0,5.0,19,0.00,,,0.00,meteohub,2013-02-14 15:17:00,
2013-02-14 10:22:00,49.6,8.4,30.15,East,90,3.0,6.0,18,0.00,,,0.00,meteohub,2013-02-14 15:22:00,
2013-02-14 10:27:00,49.8,3.2,30.15,NW,315,3.0,6.0,14,0.00,,,0.00,meteohub,2013-02-14 15:27:00,
2013-02-14 10:32:00,50.2,3.4,30.15,NE,45,2.0,6.0,14,0.00,,,0.00,meteohub,2013-02-14 15:32:00,
2013-02-14 10:38:00,50.9,2.5,30.15,NW,315,2.0,6.0,13,0.00,,,0.00,meteohub,2013-02-14 15:38:00,
2013-02-14 10:43:00,51.8,1.6,30.15,WSW,248,4.0,6.0,12,0.00,,,0.00,meteohub,2013-02-14 15:43:00,
2013-02-14 10:48:00,52.3,0.1,30.16,SE,135,4.0,6.0,11,0.00,,,0.00,meteohub,2013-02-14 15:48:00,
2013-02-14 10:53:00,52.7,52.7,30.15,NNE,23,4.0,4.0,0,0.00,,,0.00,meteohub,2013-02-14 15:53:00,
2013-02-14 10:58:00,52.7,52.7,30.15,North,0,3.0,6.0,0,0.00,,,0.00,meteohub,2013-02-14 15:58:00,
2013-02-14 11:03:00,53.2,53.2,30.15,NE,45,4.0,6.0,0,0.00,,,0.00,meteohub,2013-02-14 16:03:00,
2013-02-14 11:08:00,53.4,53.4,30.15,NW,315,4.0,6.0,0,0.00,,,0.00,meteohub,2013-02-14 16:08:00,
2013-02-14 11:13:00,53.1,53.1,30.15,West,270,4.0,6.0,0,0.00,,,0.00,meteohub,2013-02-14 16:13:00,
2013-02-14 11:18:00,52.9,52.9,30.16,NE,45,6.0,6.0,0,0.00,,,0.00,meteohub,2013-02-14 16:18:00,
2013-02-14 11:23:00,53.6,53.6,30.16,SE,135,4.0,6.0,0,0.00,,,0.00,meteohub,2013-02-14 16:23:00,
2013-02-14 11:28:00,54.1,54.1,30.16,West,270,6.0,6.0,0,0.00,,,0.00,meteohub,2013-02-14 16:28:00,
2013-02-14 11:33:00,54.1,54.1,30.16,West,270,5.0,6.0,0,0.00,,,0.00,meteohub,2013-02-14 16:33:00,
2013-02-14 11:39:00,54.5,54.5,30.16,NW,315,4.0,7.0,0,0.00,,,0.00,meteohub,2013-02-14 16:39:00,
2013-02-14 11:44:00,55.0,55.0,30.15,East,90,2.0,7.0,0,0.00,,,0.00,meteohub,2013-02-14 16:44:00,
2013-02-14 11:49:00,55.6,55.6,30.15,SE,135,6.0,7.0,0,0.00,,,0.00,meteohub,2013-02-14 16:49:00,
2013-02-14 11:54:00,55.9,55.9,30.15,South,180,4.0,6.0,0,0.00,,,0.00,meteohub,2013-02-14 16:54:00,
2013-02-14 11:59:00,55.4,55.4,30.15,North,0,2.0,6.0,0,0.00,,,0.00,meteohub,2013-02-14 16:59:00,
2013-02-14 12:04:00,55.6,55.6,30.15,West,270,8.0,8.0,0,0.00,,,0.00,meteohub,2013-02-14 17:04:00,
2013-02-14 12:09:00,55.9,55.9,30.15,West,270,6.0,8.0,0,0.00,,,0.00,meteohub,2013-02-14 17:09:00,
2013-02-14 12:14:00,54.5,54.5,30.14,NW,315,4.0,8.0,0,0.00,,,0.00,meteohub,2013-02-14 17:14:00,
2013-02-14 12:19:00,55.6,55.6,30.14,SE,135,3.0,10.0,0,0.00,,,0.00,meteohub,2013-02-14 17:19:00,
2013-02-14 12:24:00,55.8,55.8,30.13,West,270,8.0,10.0,0,0.00,,,0.00,meteohub,2013-02-14 17:24:00,
2013-02-14 12:29:00,55.2,55.2,30.13,NW,315,2.0,10.0,0,0.00,,,0.00,meteohub,2013-02-14 17:29:00,
2013-02-14 12:34:00,56.7,56.7,30.12,NW,315,5.0,8.0,0,0.00,,,0.00,meteohub,2013-02-14 17:34:00,
2013-02-14 12:40:00,56.7,56.7,30.12,NNE,23,5.0,8.0,0,0.00,,,0.00,meteohub,2013-02-14 17:40:00,
2013-02-14 12:45:00,56.3,56.3,30.12,NE,45,2.0,7.0,0,0.00,,,0.00,meteohub,2013-02-14 17:45:00,
2013-02-14 12:50:00,57.9,57.9,30.12,NW,315,2.0,7.0,0,0.00,,,0.00,meteohub,2013-02-14 17:50:00,
2013-02-14 12:55:00,58.5,58.5,30.10,NW,315,2.0,5.0,0,0.00,,,0.00,meteohub,2013-02-14 17:55:00,
2013-02-14 13:00:00,59.0,59.0,30.10,SW,225,4.0,5.0,0,0.00,,,0.00,meteohub,2013-02-14 18:00:00,
2013-02-14 13:05:00,59.2,59.2,30.10,SE,135,6.0,8.0,0,0.00,,,0.00,meteohub,2013-02-14 18:05:00,
2013-02-14 13:10:00,58.8,58.8,30.10,North,0,2.0,8.0,0,0.00,,,0.00,meteohub,2013-02-14 18:10:00,
2013-02-14 13:15:00,58.3,58.3,30.10,East,90,4.0,8.0,0,0.00,,,0.00,meteohub,2013-02-14 18:15:00,
2013-02-14 13:20:00,59.0,59.0,30.10,West,270,7.0,7.0,0,0.00,,,0.00,meteohub,2013-02-14 18:20:00,
2013-02-14 13:25:00,59.0,59.0,30.10,SE,135,2.0,7.0,0,0.00,,,0.00,meteohub,2013-02-14 18:25:00,
2013-02-14 13:30:00,58.8,58.8,30.11,West,270,7.0,7.0,0,0.00,,,0.00,meteohub,2013-02-14 18:30:00,
2013-02-14 13:36:00,58.1,58.1,30.11,SW,225,4.0,8.0,0,0.00,,,0.00,meteohub,2013-02-14 18:36:00,
2013-02-14 13:41:00,57.9,57.9,30.12,West,270,4.0,8.0,0,0.00,,,0.00,meteohub,2013-02-14 18:41:00,
2013-02-14 13:46:00,58.3,58.3,30.10,NW,315,4.0,8.0,0,0.00,,,0.00,meteohub,2013-02-14 18:46:00,
2013-02-14 13:51:00,56.8,56.8,30.12,West,270,4.0,8.0,0,0.00,,,0.00,meteohub,2013-02-14 18:51:00,
2013-02-14 13:56:00,57.0,57.0,30.11,WSW,248,7.0,8.0,0,0.00,,,0.00,meteohub,2013-02-14 18:56:00,
2013-02-14 14:01:00,57.2,57.2,30.10,NE,45,4.0,8.0,0,0.00,,,0.00,meteohub,2013-02-14 19:01:00,
2013-02-14 14:06:00,57.2,57.2,30.10,West,270,4.0,7.0,0,0.00,,,0.00,meteohub,2013-02-14 19:06:00,
2013-02-14 14:11:00,57.0,57.0,30.10,West,270,6.0,8.0,0,0.00,,,0.00,meteohub,2013-02-14 19:11:00,
2013-02-14 14:16:00,56.8,56.8,30.09,West,270,6.0,8.0,0,0.00,,,0.00,meteohub,2013-02-14 19:16:00,
2013-02-14 14:21:00,56.8,56.8,30.09,West,270,7.0,8.0,0,0.00,,,0.00,meteohub,2013-02-14 19:21:00,
2013-02-14 14:27:00,57.0,57.0,30.10,NW,315,6.0,8.0,0,0.00,,,0.00,meteohub,2013-02-14 19:27:00,
2013-02-14 14:32:00,57.2,57.2,30.10,West,270,7.0,8.0,0,0.00,,,0.00,meteohub,2013-02-14 19:32:00,
2013-02-14 14:37:00,57.2,57.2,30.10,South,180,4.0,8.0,0,0.00,,,0.00,meteohub,2013-02-14 19:37:00,
2013-02-14 14:42:00,57.2,57.2,30.11,West,270,8.0,8.0,0,0.00,,,0.00,meteohub,2013-02-14 19:42:00,
2013-02-14 14:47:00,56.5,56.5,30.11,West,270,8.0,8.0,0,0.00,,,0.00,meteohub,2013-02-14 19:47:00,
2013-02-14 14:52:00,56.7,56.7,30.11,NW,315,6.0,8.0,0,0.00,,,0.00,meteohub,2013-02-14 19:52:00,
2013-02-14 14:57:00,56.7,56.7,30.10,SE,135,2.0,8.0,0,0.00,,,0.00,meteohub,2013-02-14 19:57:00,
2013-02-14 15:02:00,57.2,57.2,30.10,North,0,2.0,8.0,0,0.00,,,0.00,meteohub,2013-02-14 20:02:00,
2013-02-14 15:07:00,57.2,57.2,30.10,WSW,248,7.0,8.0,0,0.00,,,0.00,meteohub,2013-02-14 20:07:00,
2013-02-14 15:12:00,56.8,56.8,30.10,West,270,5.0,7.0,0,0.00,,,0.00,meteohub,2013-02-14 20:12:00,
2013-02-14 15:17:00,56.7,56.7,30.10,NE,45,6.0,8.0,0,0.00,,,0.00,meteohub,2013-02-14 20:17:00,
2013-02-14 15:22:00,56.7,56.7,30.10,NW,315,3.0,8.0,0,0.00,,,0.00,meteohub,2013-02-14 20:22:00,
2013-02-14 15:27:00,56.7,56.7,30.10,WSW,248,8.0,8.0,0,0.00,,,0.00,meteohub,2013-02-14 20:27:00,
2013-02-14 15:32:00,56.3,56.3,30.10,West,270,4.0,8.0,0,0.00,,,0.00,meteohub,2013-02-14 20:32:00,
2013-02-14 15:38:00,56.7,56.7,30.10,NW,315,7.0,9.0,0,0.00,,,0.00,meteohub,2013-02-14 20:38:00,
2013-02-14 15:43:00,56.5,56.5,30.10,West,270,4.0,9.0,0,0.00,,,0.00,meteohub,2013-02-14 20:43:00,
2013-02-14 15:48:00,56.1,56.1,30.09,West,270,8.0,9.0,0,0.00,,,0.00,meteohub,2013-02-14 20:48:00,
2013-02-14 15:53:00,55.8,55.8,30.10,West,270,5.0,8.0,0,0.00,,,0.00,meteohub,2013-02-14 20:53:00,
2013-02-14 15:58:00,55.9,55.9,30.10,WSW,248,5.0,11.0,0,0.00,,,0.00,meteohub,2013-02-14 20:58:00,
2013-02-14 16:03:00,56.1,56.1,30.10,WNW,293,5.0,11.0,0,0.00,,,0.00,meteohub,2013-02-14 21:03:00,
2013-02-14 16:08:00,56.8,56.8,30.09,SE,135,5.0,8.0,0,0.00,,,0.00,meteohub,2013-02-14 21:08:00,
2013-02-14 16:13:00,57.4,57.4,30.09,NW,315,2.0,8.0,0,0.00,,,0.00,meteohub,2013-02-14 21:13:00,
2013-02-14 16:18:00,57.4,57.4,30.09,West,270,11.0,11.0,0,0.00,,,0.00,meteohub,2013-02-14 21:18:00,
2013-02-14 16:23:00,57.2,57.2,30.09,NW,315,4.0,11.0,0,0.00,,,0.00,meteohub,2013-02-14 21:23:00,
2013-02-14 16:28:00,56.7,56.7,30.09,NW,315,2.0,11.0,0,0.00,,,0.00,meteohub,2013-02-14 21:28:00,
2013-02-14 16:33:00,56.1,56.1,30.09,West,270,6.0,11.0,0,0.00,,,0.00,meteohub,2013-02-14 21:33:00,
2013-02-14 16:38:00,55.2,55.2,30.09,West,270,5.0,11.0,0,0.00,,,0.00,meteohub,2013-02-14 21:38:00,
2013-02-14 16:43:00,55.0,55.0,30.09,NW,315,4.0,11.0,0,0.00,,,0.00,meteohub,2013-02-14 21:43:00,
2013-02-14 16:49:00,55.0,55.0,30.10,West,270,7.0,11.0,0,0.00,,,0.00,meteohub,2013-02-14 21:49:00,
2013-02-14 16:54:00,55.6,55.6,30.10,SW,225,1.0,11.0,0,0.00,,,0.00,meteohub,2013-02-14 21:54:00,
2013-02-14 16:59:00,57.2,57.2,30.09,SW,225,7.0,7.0,0,0.00,,,0.00,meteohub,2013-02-14 21:59:00,
2013-02-14 17:04:00,57.2,57.2,30.09,South,180,11.0,11.0,0,0.00,,,0.00,meteohub,2013-02-14 22:04:00,
2013-02-14 17:09:00,56.1,56.1,30.09,West,270,4.0,11.0,0,0.00,,,0.00,meteohub,2013-02-14 22:09:00,
2013-02-14 17:14:00,54.9,54.9,30.10,South,180,2.0,11.0,0,0.00,,,0.00,meteohub,2013-02-14 22:14:00,
2013-02-14 17:19:00,54.1,54.1,30.10,WSW,248,10.0,11.0,0,0.00,,,0.00,meteohub,2013-02-14 22:19:00,
2013-02-14 17:24:00,54.1,54.1,30.10,West,270,4.0,11.0,0,0.00,,,0.00,meteohub,2013-02-14 22:24:00,
2013-02-14 17:29:00,54.1,54.1,30.10,West,270,5.0,10.0,0,0.00,,,0.00,meteohub,2013-02-14 22:29:00,
2013-02-14 17:34:00,53.6,53.6,30.11,South,180,7.0,10.0,0,0.00,,,0.00,meteohub,2013-02-14 22:34:00,
2013-02-14 17:39:00,53.1,53.1,30.11,NE,45,3.0,7.0,0,0.00,,,0.00,meteohub,2013-02-14 22:39:00,
2013-02-14 17:44:00,52.3,52.3,30.11,West,270,4.0,7.0,0,0.00,,,0.00,meteohub,2013-02-14 22:44:00,
2013-02-14 17:49:00,52.0,52.0,30.11,West,270,3.0,7.0,0,0.00,,,0.00,meteohub,2013-02-14 22:49:00,
2013-02-14 17:55:00,51.4,51.4,30.12,SW,225,2.0,6.0,0,0.00,,,0.00,meteohub,2013-02-14 22:55:00,
2013-02-14 18:00:00,50.9,50.9,30.12,South,180,1.0,6.0,0,0.00,,,0.00,meteohub,2013-02-14 23:00:00,
2013-02-14 18:05:00,50.9,50.9,30.11,South,180,1.0,6.0,0,0.00,,,0.00,meteohub,2013-02-14 23:05:00,
2013-02-14 18:10:00,49.6,-2.0,30.11,NW,315,1.0,5.0,11,0.00,,,0.00,meteohub,2013-02-14 23:10:00,
2013-02-14 18:15:00,48.9,2.5,30.11,NW,315,1.0,2.0,14,0.00,,,0.00,meteohub,2013-02-14 23:15:00,
2013-02-14 18:20:00,48.2,7.2,30.12,NW,315,0.0,2.0,18,0.00,,,0.00,meteohub,2013-02-14 23:20:00,
2013-02-14 18:25:00,47.5,9.0,30.12,NW,315,0.0,2.0,20,0.00,,,0.00,meteohub,2013-02-14 23:25:00,
2013-02-14 18:30:00,46.6,14.0,30.13,NW,315,0.0,2.0,26,0.00,,,0.00,meteohub,2013-02-14 23:30:00,
2013-02-14 18:35:00,45.7,16.3,30.13,NW,315,2.0,2.0,30,0.00,,,0.00,meteohub,2013-02-14 23:35:00,
2013-02-14 18:40:00,45.0,18.0,30.13,NW,315,2.0,2.0,33,0.00,,,0.00,meteohub,2013-02-14 23:40:00,
2013-02-14 18:45:00,44.1,19.2,30.13,NW,315,2.0,2.0,36,0.00,,,0.00,meteohub,2013-02-14 23:45:00,
2013-02-14 18:50:00,43.5,20.5,30.14,NW,315,2.0,2.0,39,0.00,,,0.00,meteohub,2013-02-14 23:50:00,
2013-02-14 18:55:00,43.0,21.2,30.14,NW,315,2.0,2.0,41,0.00,,,0.00,meteohub,2013-02-14 23:55:00,
2013-02-14 19:00:00,42.6,22.1,30.14,NW,315,2.0,3.0,43,0.00,,,0.00,meteohub,2013-02-15 00:00:00,
2013-02-14 19:05:00,42.6,22.1,30.15,NW,315,2.0,3.0,43,0.00,,,0.00,meteohub,2013-02-15 00:05:00,
2013-02-14 19:10:00,41.9,22.5,30.15,NW,315,2.0,2.0,45,0.00,,,0.00,meteohub,2013-02-15 00:10:00,
2013-02-14 19:15:00,41.4,22.5,30.15,NW,315,2.0,2.0,46,0.00,,,0.00,meteohub,2013-02-15 00:15:00,
2013-02-14 19:20:00,41.0,22.6,30.16,NW,315,2.0,2.0,47,0.00,,,0.00,meteohub,2013-02-15 00:20:00,
2013-02-14 19:25:00,40.6,22.8,30.15,NW,315,2.0,2.0,48,0.00,,,0.00,meteohub,2013-02-15 00:25:00,
2013-02-14 19:30:00,40.3,23.0,30.16,NW,315,2.0,2.0,49,0.00,,,0.00,meteohub,2013-02-15 00:30:00,
2013-02-14 19:35:00,39.9,22.1,30.15,NW,315,0.0,2.0,48,0.00,,,0.00,meteohub,2013-02-15 00:35:00,
2013-02-14 19:40:00,39.6,21.9,30.15,NW,315,0.0,2.0,48,0.00,,,0.00,meteohub,2013-02-15 00:40:00,
2013-02-14 19:45:00,40.8,23.0,30.15,NW,315,0.0,2.0,48,0.00,,,0.00,meteohub,2013-02-15 00:45:00,
2013-02-14 19:50:00,37.9,20.3,30.16,NW,315,0.0,1.0,48,0.00,,,0.00,meteohub,2013-02-15 00:50:00,
2013-02-14 19:55:00,38.3,21.2,30.16,NW,315,0.0,1.0,49,0.00,,,0.00,meteohub,2013-02-15 00:55:00,
2013-02-14 20:00:00,38.1,21.4,30.16,NW,315,0.0,1.0,50,0.00,,,0.00,meteohub,2013-02-15 01:00:00,
2013-02-14 20:05:00,38.1,21.4,30.16,NW,315,0.0,0.0,50,0.00,,,0.00,meteohub,2013-02-15 01:05:00,
2013-02-14 20:10:00,37.8,21.4,30.17,NW,315,0.0,0.0,51,0.00,,,0.00,meteohub,2013-02-15 01:10:00,
2013-02-14 20:15:00,37.4,21.6,30.17,NW,315,0.0,0.0,52,0.00,,,0.00,meteohub,2013-02-15 01:15:00,
2013-02-14 20:20:00,37.2,22.3,30.17,NW,315,0.0,0.0,54,0.00,,,0.00,meteohub,2013-02-15 01:20:00,
2013-02-14 20:25:00,37.0,22.1,30.17,NW,315,0.0,0.0,54,0.00,,,0.00,meteohub,2013-02-15 01:25:00,
2013-02-14 20:30:00,36.9,21.9,30.18,NW,315,0.0,0.0,54,0.00,,,0.00,meteohub,2013-02-15 01:30:00,
2013-02-14 20:36:00,36.5,22.1,30.17,NW,315,0.0,0.0,55,0.00,,,0.00,meteohub,2013-02-15 01:36:00,
2013-02-14 20:41:00,36.3,21.9,30.18,NW,315,0.0,0.0,55,0.00,,,0.00,meteohub,2013-02-15 01:41:00,
2013-02-14 20:46:00,36.1,22.1,30.18,NW,315,0.0,2.0,56,0.00,,,0.00,meteohub,2013-02-15 01:46:00,
2013-02-14 20:51:00,36.0,22.5,30.18,NW,315,0.0,2.0,57,0.00,,,0.00,meteohub,2013-02-15 01:51:00,
2013-02-14 20:56:00,35.8,22.3,30.18,NW,315,0.0,2.0,57,0.00,,,0.00,meteohub,2013-02-15 01:56:00,
2013-02-14 21:01:00,35.6,22.1,30.19,NW,315,0.0,0.0,57,0.00,,,0.00,meteohub,2013-02-15 02:01:00,
2013-02-14 21:06:00,35.6,22.1,30.19,NW,315,0.0,0.0,57,0.00,,,0.00,meteohub,2013-02-15 02:06:00,
2013-02-14 21:11:00,34.9,21.4,30.19,NW,315,0.0,0.0,57,0.00,,,0.00,meteohub,2013-02-15 02:11:00,
2013-02-14 21:16:00,34.9,21.7,30.19,NW,315,2.0,2.0,58,0.00,,,0.00,meteohub,2013-02-15 02:16:00,
2013-02-14 21:21:00,34.9,22.6,30.19,NW,315,2.0,2.0,60,0.00,,,0.00,meteohub,2013-02-15 02:21:00,
2013-02-14 21:26:00,34.7,22.5,30.19,NW,315,0.0,2.0,60,0.00,,,0.00,meteohub,2013-02-15 02:26:00,
2013-02-14 21:31:00,34.5,22.3,30.20,NW,315,0.0,2.0,60,0.00,,,0.00,meteohub,2013-02-15 02:31:00,
2013-02-14 21:37:00,34.3,21.7,30.20,NW,315,0.0,2.0,59,0.00,,,0.00,meteohub,2013-02-15 02:37:00,
2013-02-14 21:42:00,34.7,22.1,30.20,NW,315,0.0,0.0,59,0.00,,,0.00,meteohub,2013-02-15 02:42:00,
2013-02-14 21:47:00,33.8,21.2,30.20,NW,315,0.0,0.0,59,0.00,,,0.00,meteohub,2013-02-15 02:47:00,
2013-02-14 21:52:00,33.8,21.6,30.20,NW,315,0.0,0.0,60,0.00,,,0.00,meteohub,2013-02-15 02:52:00,
2013-02-14 21:57:00,33.6,21.4,30.20,NW,315,0.0,0.0,60,0.00,,,0.00,meteohub,2013-02-15 02:57:00,
2013-02-14 22:02:00,33.4,21.2,30.20,NW,315,0.0,0.0,60,0.00,,,0.00,meteohub,2013-02-15 03:02:00,
2013-02-14 22:07:00,33.4,21.2,30.20,NW,315,0.0,0.0,60,0.00,,,0.00,meteohub,2013-02-15 03:07:00,
2013-02-14 22:12:00,33.1,20.8,30.20,NW,315,0.0,0.0,60,0.00,,,0.00,meteohub,2013-02-15 03:12:00,
2013-02-14 22:17:00,33.1,20.8,30.20,NW,315,0.0,0.0,60,0.00,,,0.00,meteohub,2013-02-15 03:17:00,
2013-02-14 22:22:00,32.9,21.0,30.20,NW,315,0.0,0.0,61,0.00,,,0.00,meteohub,2013-02-15 03:22:00,
2013-02-14 22:27:00,32.7,21.0,30.21,NW,315,0.0,0.0,61,0.00,,,0.00,meteohub,2013-02-15 03:27:00,
2013-02-14 22:32:00,32.5,20.8,30.21,NW,315,0.0,0.0,61,0.00,,,0.00,meteohub,2013-02-15 03:32:00,
2013-02-14 22:37:00,32.5,20.8,30.21,NW,315,0.0,0.0,61,0.00,,,0.00,meteohub,2013-02-15 03:37:00,
2013-02-14 22:42:00,32.4,20.7,30.21,NW,315,0.0,0.0,61,0.00,,,0.00,meteohub,2013-02-15 03:42:00,
2013-02-14 22:47:00,32.2,20.5,30.21,NW,315,0.0,0.0,61,0.00,,,0.00,meteohub,2013-02-15 03:47:00,
2013-02-14 22:52:00,32.0,20.3,30.21,NW,315,0.0,0.0,61,0.00,,,0.00,meteohub,2013-02-15 03:52:00,
2013-02-14 22:57:00,31.8,20.1,30.21,NW,315,0.0,0.0,61,0.00,,,0.00,meteohub,2013-02-15 03:57:00,
2013-02-14 23:02:00,31.8,20.1,30.21,NW,315,0.0,0.0,61,0.00,,,0.00,meteohub,2013-02-15 04:02:00,
2013-02-14 23:07:00,31.8,20.1,30.21,NW,315,0.0,0.0,61,0.00,,,0.00,meteohub,2013-02-15 04:07:00,
2013-02-14 23:12:00,31.3,19.6,30.21,NW,315,0.0,0.0,61,0.00,,,0.00,meteohub,2013-02-15 04:12:00,
2013-02-14 23:17:00,30.9,19.6,30.21,NW,315,0.0,0.0,62,0.00,,,0.00,meteohub,2013-02-15 04:17:00,
2013-02-14 23:23:00,31.3,19.9,30.22,NW,315,0.0,0.0,62,0.00,,,0.00,meteohub,2013-02-15 04:23:00,
2013-02-14 23:28:00,31.1,19.8,30.22,NW,315,0.0,0.0,62,0.00,,,0.00,meteohub,2013-02-15 04:28:00,
2013-02-14 23:33:00,30.9,19.6,30.22,NW,315,0.0,0.0,62,0.00,,,0.00,meteohub,2013-02-15 04:33:00,
2013-02-14 23:38:00,30.9,19.9,30.22,NW,315,0.0,0.0,63,0.00,,,0.00,meteohub,2013-02-15 04:38:00,
2013-02-14 23:43:00,30.7,19.8,30.22,NW,315,0.0,0.0,63,0.00,,,0.00,meteohub,2013-02-15 04:43:00,
2013-02-14 23:48:00,30.7,19.8,30.22,NW,315,0.0,0.0,63,0.00,,,0.00,meteohub,2013-02-15 04:48:00,
2013-02-14 23:53:00,30.6,19.6,30.22,NW,315,0.0,0.0,63,0.00,,,0.00,meteohub,2013-02-15 04:53:00,
2013-02-14 23:58:00,30.4,19.4,30.22,NW,315,0.0,0.0,63,0.00,,,0.00,meteohub,2013-02-15 04:58:00,